Year,Month,Day,Hour,Minute,Value (Times are PST for temperature in C)
2017,05,23,00,00,17.20
2017,05,23,00,01,17.10
2017,05,23,00,02,17.10
2017,05,23,00,03,17.10
2017,05,23,00,04,17.10
2017,05,23,00,05,17.10
2017,05,23,00,06,17.10
2017,05,23,00,07,17.00
2017,05,23,00,08,17.00
2017,05,23,00,09,17.00
2017,05,23,00,10,16.90
2017,05,23,00,11,16.90
2017,05,23,00,12,16.80
2017,05,23,00,13,16.80
2017,05,23,00,14,16.70
2017,05,23,00,15,16.60
2017,05,23,00,16,16.50
2017,05,23,00,17,16.40
2017,05,23,00,18,16.40
2017,05,23,00,19,16.30
2017,05,23,00,20,16.20
2017,05,23,00,21,16.20
2017,05,23,00,22,16.20
2017,05,23,00,23,16.10
2017,05,23,00,24,16.10
2017,05,23,00,25,16.10
2017,05,23,00,26,16.10
2017,05,23,00,27,16.10
2017,05,23,00,28,16.00
2017,05,23,00,29,16.00
2017,05,23,00,30,16.00
2017,05,23,00,31,15.90
2017,05,23,00,32,15.90
2017,05,23,00,33,15.90
2017,05,23,00,34,15.90
2017,05,23,00,35,15.90
2017,05,23,00,36,15.90
2017,05,23,00,37,15.90
2017,05,23,00,38,15.90
2017,05,23,00,39,15.90
2017,05,23,00,40,15.90
2017,05,23,00,41,15.90
2017,05,23,00,42,15.90
2017,05,23,00,43,15.90
2017,05,23,00,44,15.90
2017,05,23,00,45,15.90
2017,05,23,00,46,15.90
2017,05,23,00,47,15.90
2017,05,23,00,48,15.90
2017,05,23,00,49,15.90
2017,05,23,00,50,15.80
2017,05,23,00,51,15.80
2017,05,23,00,52,15.80
2017,05,23,00,53,15.80
2017,05,23,00,54,15.80
2017,05,23,00,55,15.80
2017,05,23,00,56,15.80
2017,05,23,00,57,15.80
2017,05,23,00,58,15.70
2017,05,23,00,59,15.70
2017,05,23,01,00,15.70
2017,05,23,01,01,15.70
2017,05,23,01,02,15.70
2017,05,23,01,03,15.70
2017,05,23,01,04,15.70
2017,05,23,01,05,15.70
2017,05,23,01,06,15.70
2017,05,23,01,07,15.70
2017,05,23,01,08,15.70
2017,05,23,01,09,15.70
2017,05,23,01,10,15.70
2017,05,23,01,11,15.70
2017,05,23,01,12,15.70
2017,05,23,01,13,15.70
2017,05,23,01,14,15.70
2017,05,23,01,15,15.60
2017,05,23,01,16,15.60
2017,05,23,01,17,15.50
2017,05,23,01,18,15.40
2017,05,23,01,19,15.40
2017,05,23,01,20,15.30
2017,05,23,01,21,15.30
2017,05,23,01,22,15.20
2017,05,23,01,23,15.20
2017,05,23,01,24,15.20
2017,05,23,01,25,15.10
2017,05,23,01,26,15.10
2017,05,23,01,27,15.10
2017,05,23,01,28,15.00
2017,05,23,01,29,15.00
2017,05,23,01,30,15.00
2017,05,23,01,31,14.90
2017,05,23,01,32,14.90
2017,05,23,01,33,14.90
2017,05,23,01,34,14.80
2017,05,23,01,35,14.80
2017,05,23,01,36,14.80
2017,05,23,01,37,14.80
2017,05,23,01,38,14.80
2017,05,23,01,39,14.80
2017,05,23,01,40,14.80
2017,05,23,01,41,14.80
2017,05,23,01,42,14.80
2017,05,23,01,43,14.70
2017,05,23,01,44,14.70
2017,05,23,01,45,14.70
2017,05,23,01,46,14.60
2017,05,23,01,47,14.60
2017,05,23,01,48,14.50
2017,05,23,01,49,14.50
2017,05,23,01,50,14.40
2017,05,23,01,51,14.40
2017,05,23,01,52,14.40
2017,05,23,01,53,14.30
2017,05,23,01,54,14.30
2017,05,23,01,55,14.30
2017,05,23,01,56,14.30
2017,05,23,01,57,14.20
2017,05,23,01,58,14.10
2017,05,23,01,59,14.00
2017,05,23,02,00,13.90
2017,05,23,02,01,13.80
2017,05,23,02,02,13.70
2017,05,23,02,03,13.60
2017,05,23,02,04,13.50
2017,05,23,02,05,13.40
2017,05,23,02,06,13.30
2017,05,23,02,07,13.20
2017,05,23,02,08,13.10
2017,05,23,02,09,13.10
2017,05,23,02,10,13.00
2017,05,23,02,11,12.90
2017,05,23,02,12,12.90
2017,05,23,02,13,12.80
2017,05,23,02,14,12.80
2017,05,23,02,15,12.70
2017,05,23,02,16,12.70
2017,05,23,02,17,12.60
2017,05,23,02,18,12.60
2017,05,23,02,19,12.60
2017,05,23,02,20,12.50
2017,05,23,02,21,12.50
2017,05,23,02,22,12.40
2017,05,23,02,23,12.40
2017,05,23,02,24,12.40
2017,05,23,02,25,12.40
2017,05,23,02,26,12.40
2017,05,23,02,27,12.30
2017,05,23,02,28,12.30
2017,05,23,02,29,12.30
2017,05,23,02,30,12.30
2017,05,23,02,31,12.30
2017,05,23,02,32,12.30
2017,05,23,02,33,12.30
2017,05,23,02,34,12.30
2017,05,23,02,35,12.30
2017,05,23,02,36,12.30
2017,05,23,02,37,12.30
2017,05,23,02,38,12.30
2017,05,23,02,39,12.30
2017,05,23,02,40,12.30
2017,05,23,02,41,12.30
2017,05,23,02,42,12.30
2017,05,23,02,43,12.30
2017,05,23,02,44,12.30
2017,05,23,02,45,12.30
2017,05,23,02,46,12.30
2017,05,23,02,47,12.40
2017,05,23,02,48,12.40
2017,05,23,02,49,12.40
2017,05,23,02,50,12.40
2017,05,23,02,51,12.50
2017,05,23,02,52,12.50
2017,05,23,02,53,12.50
2017,05,23,02,54,12.50
2017,05,23,02,55,12.50
2017,05,23,02,56,12.60
2017,05,23,02,57,12.60
2017,05,23,02,58,12.60
2017,05,23,02,59,12.60
2017,05,23,03,00,12.60
2017,05,23,03,01,12.60
2017,05,23,03,02,12.60
2017,05,23,03,03,12.70
2017,05,23,03,04,12.70
2017,05,23,03,05,12.80
2017,05,23,03,06,12.80
2017,05,23,03,07,12.90
2017,05,23,03,08,13.00
2017,05,23,03,09,13.00
2017,05,23,03,10,13.10
2017,05,23,03,11,13.10
2017,05,23,03,12,13.20
2017,05,23,03,13,13.20
2017,05,23,03,14,13.20
2017,05,23,03,15,13.30
2017,05,23,03,16,13.30
2017,05,23,03,17,13.30
2017,05,23,03,18,13.30
2017,05,23,03,19,13.30
2017,05,23,03,20,13.30
2017,05,23,03,21,13.30
2017,05,23,03,22,13.30
2017,05,23,03,23,13.30
2017,05,23,03,24,13.30
2017,05,23,03,25,13.30
2017,05,23,03,26,13.30
2017,05,23,03,27,13.30
2017,05,23,03,28,13.30
2017,05,23,03,29,13.30
2017,05,23,03,30,13.30
2017,05,23,03,31,13.30
2017,05,23,03,32,13.30
2017,05,23,03,33,13.30
2017,05,23,03,34,13.30
2017,05,23,03,35,13.30
2017,05,23,03,36,13.40
2017,05,23,03,37,13.40
2017,05,23,03,38,13.40
2017,05,23,03,39,13.50
2017,05,23,03,40,13.50
2017,05,23,03,41,13.60
2017,05,23,03,42,13.60
2017,05,23,03,43,13.60
2017,05,23,03,44,13.60
2017,05,23,03,45,13.70
2017,05,23,03,46,13.70
2017,05,23,03,47,13.80
2017,05,23,03,48,13.80
2017,05,23,03,49,13.80
2017,05,23,03,50,13.80
2017,05,23,03,51,13.80
2017,05,23,03,52,13.80
2017,05,23,03,53,13.90
2017,05,23,03,54,13.90
2017,05,23,03,55,14.00
2017,05,23,03,56,14.00
2017,05,23,03,57,14.10
2017,05,23,03,58,14.10
2017,05,23,03,59,14.10
2017,05,23,04,00,14.10
2017,05,23,04,01,14.10
2017,05,23,04,02,14.00
2017,05,23,04,03,14.00
2017,05,23,04,04,14.00
2017,05,23,04,05,14.10
2017,05,23,04,06,14.10
2017,05,23,04,07,14.20
2017,05,23,04,08,14.20
2017,05,23,04,09,14.20
2017,05,23,04,10,14.30
2017,05,23,04,11,14.30
2017,05,23,04,12,14.40
2017,05,23,04,13,14.50
2017,05,23,04,14,14.50
2017,05,23,04,15,14.60
2017,05,23,04,16,14.60
2017,05,23,04,17,14.60
2017,05,23,04,18,14.60
2017,05,23,04,19,14.60
2017,05,23,04,20,14.60
2017,05,23,04,21,14.50
2017,05,23,04,22,14.40
2017,05,23,04,23,14.30
2017,05,23,04,24,14.20
2017,05,23,04,25,14.10
2017,05,23,04,26,14.00
2017,05,23,04,27,13.90
2017,05,23,04,28,13.80
2017,05,23,04,29,13.70
2017,05,23,04,30,13.70
2017,05,23,04,31,13.60
2017,05,23,04,32,13.60
2017,05,23,04,33,13.50
2017,05,23,04,34,13.50
2017,05,23,04,35,13.50
2017,05,23,04,36,13.40
2017,05,23,04,37,13.40
2017,05,23,04,38,13.40
2017,05,23,04,39,13.40
2017,05,23,04,40,13.40
2017,05,23,04,41,13.30
2017,05,23,04,42,13.30
2017,05,23,04,43,13.30
2017,05,23,04,44,13.30
2017,05,23,04,45,13.20
2017,05,23,04,46,13.20
2017,05,23,04,47,13.20
2017,05,23,04,48,13.10
2017,05,23,04,49,13.10
2017,05,23,04,50,13.10
2017,05,23,04,51,13.10
2017,05,23,04,52,13.00
2017,05,23,04,53,13.00
2017,05,23,04,54,13.00
2017,05,23,04,55,13.00
2017,05,23,04,56,13.00
2017,05,23,04,57,13.00
2017,05,23,04,58,12.90
2017,05,23,04,59,12.90
2017,05,23,05,00,12.90
2017,05,23,05,01,12.90
2017,05,23,05,02,12.80
2017,05,23,05,03,12.80
2017,05,23,05,04,12.80
2017,05,23,05,05,12.80
2017,05,23,05,06,12.80
2017,05,23,05,07,12.80
2017,05,23,05,08,12.80
2017,05,23,05,09,12.80
2017,05,23,05,10,12.80
2017,05,23,05,11,12.80
2017,05,23,05,12,12.80
2017,05,23,05,13,12.70
2017,05,23,05,14,12.70
2017,05,23,05,15,12.70
2017,05,23,05,16,12.70
2017,05,23,05,17,12.70
2017,05,23,05,18,12.70
2017,05,23,05,19,12.70
2017,05,23,05,20,12.70
2017,05,23,05,21,12.70
2017,05,23,05,22,12.70
2017,05,23,05,23,12.70
2017,05,23,05,24,12.70
2017,05,23,05,25,12.70
2017,05,23,05,26,12.70
2017,05,23,05,27,12.70
2017,05,23,05,28,12.70
2017,05,23,05,29,12.70
2017,05,23,05,30,12.70
2017,05,23,05,31,12.70
2017,05,23,05,32,12.70
2017,05,23,05,33,12.80
2017,05,23,05,34,12.80
2017,05,23,05,35,12.80
2017,05,23,05,36,12.90
2017,05,23,05,37,12.90
2017,05,23,05,38,12.90
2017,05,23,05,39,12.90
2017,05,23,05,40,12.90
2017,05,23,05,41,12.90
2017,05,23,05,42,12.90
2017,05,23,05,43,12.90
2017,05,23,05,44,12.90
2017,05,23,05,45,12.80
2017,05,23,05,46,12.80
2017,05,23,05,47,12.80
2017,05,23,05,48,12.80
2017,05,23,05,49,12.70
2017,05,23,05,50,12.70
2017,05,23,05,51,12.70
2017,05,23,05,52,12.80
2017,05,23,05,53,12.80
2017,05,23,05,54,12.80
2017,05,23,05,55,12.90
2017,05,23,05,56,12.90
2017,05,23,05,57,12.90
2017,05,23,05,58,12.90
2017,05,23,05,59,12.90
2017,05,23,06,00,12.90
2017,05,23,06,01,12.90
2017,05,23,06,02,12.90
2017,05,23,06,03,12.90
2017,05,23,06,04,12.90
2017,05,23,06,05,12.90
2017,05,23,06,06,12.90
2017,05,23,06,07,12.90
2017,05,23,06,08,13.00
2017,05,23,06,09,13.00
2017,05,23,06,10,13.00
2017,05,23,06,11,13.10
2017,05,23,06,12,13.20
2017,05,23,06,13,13.20
2017,05,23,06,14,13.30
2017,05,23,06,15,13.30
2017,05,23,06,16,13.40
2017,05,23,06,17,13.40
2017,05,23,06,18,13.50
2017,05,23,06,19,13.50
2017,05,23,06,20,13.60
2017,05,23,06,21,13.60
2017,05,23,06,22,13.70
2017,05,23,06,23,13.80
2017,05,23,06,24,13.80
2017,05,23,06,25,13.90
2017,05,23,06,26,14.00
2017,05,23,06,27,14.00
2017,05,23,06,28,14.10
2017,05,23,06,29,14.20
2017,05,23,06,30,14.30
2017,05,23,06,31,14.40
2017,05,23,06,32,14.50
2017,05,23,06,33,14.60
2017,05,23,06,34,14.60
2017,05,23,06,35,14.70
2017,05,23,06,36,14.70
2017,05,23,06,37,14.80
2017,05,23,06,38,14.80
2017,05,23,06,39,14.80
2017,05,23,06,40,14.90
2017,05,23,06,41,14.90
2017,05,23,06,42,14.90
2017,05,23,06,43,14.90
2017,05,23,06,44,15.00
2017,05,23,06,45,15.00
2017,05,23,06,46,15.00
2017,05,23,06,47,15.10
2017,05,23,06,48,15.00
2017,05,23,06,49,15.00
2017,05,23,06,50,15.00
2017,05,23,06,51,14.90
2017,05,23,06,52,14.90
2017,05,23,06,53,15.00
2017,05,23,06,54,15.00
2017,05,23,06,55,15.00
2017,05,23,06,56,15.00
2017,05,23,06,57,15.00
2017,05,23,06,58,15.10
2017,05,23,06,59,15.10
2017,05,23,07,00,15.10
2017,05,23,07,01,15.20
2017,05,23,07,02,15.20
2017,05,23,07,03,15.20
2017,05,23,07,04,15.30
2017,05,23,07,05,15.30
2017,05,23,07,06,15.30
2017,05,23,07,07,15.40
2017,05,23,07,08,15.40
2017,05,23,07,09,15.50
2017,05,23,07,10,15.50
2017,05,23,07,11,15.60
2017,05,23,07,12,15.70
2017,05,23,07,13,15.70
2017,05,23,07,14,15.80
2017,05,23,07,15,15.80
2017,05,23,07,16,15.90
2017,05,23,07,17,15.90
2017,05,23,07,18,16.00
2017,05,23,07,19,16.10
2017,05,23,07,20,16.10
2017,05,23,07,21,16.20
2017,05,23,07,22,16.20
2017,05,23,07,23,16.30
2017,05,23,07,24,16.30
2017,05,23,07,25,16.40
2017,05,23,07,26,16.40
2017,05,23,07,27,16.50
2017,05,23,07,28,16.50
2017,05,23,07,29,16.50
2017,05,23,07,30,16.60
2017,05,23,07,31,16.60
2017,05,23,07,32,16.60
2017,05,23,07,33,16.60
2017,05,23,07,34,16.60
2017,05,23,07,35,16.70
2017,05,23,07,36,16.70
2017,05,23,07,37,16.80
2017,05,23,07,38,16.80
2017,05,23,07,39,16.90
2017,05,23,07,40,16.90
2017,05,23,07,41,16.90
2017,05,23,07,42,17.00
2017,05,23,07,43,17.10
2017,05,23,07,44,17.10
2017,05,23,07,45,17.10
2017,05,23,07,46,17.20
2017,05,23,07,47,17.20
2017,05,23,07,48,17.30
2017,05,23,07,49,17.30
2017,05,23,07,50,17.40
2017,05,23,07,51,17.40
2017,05,23,07,52,17.40
2017,05,23,07,53,17.50
2017,05,23,07,54,17.50
2017,05,23,07,55,17.60
2017,05,23,07,56,17.60
2017,05,23,07,57,17.70
2017,05,23,07,58,17.70
2017,05,23,07,59,17.80
2017,05,23,08,00,17.80
2017,05,23,08,01,17.80
2017,05,23,08,02,17.80
2017,05,23,08,03,17.90
2017,05,23,08,04,17.90
2017,05,23,08,05,17.90
2017,05,23,08,06,18.00
2017,05,23,08,07,18.00
2017,05,23,08,08,18.10
2017,05,23,08,09,18.20
2017,05,23,08,10,18.20
2017,05,23,08,11,18.20
2017,05,23,08,12,18.20
2017,05,23,08,13,18.20
2017,05,23,08,14,18.30
2017,05,23,08,15,18.30
2017,05,23,08,16,18.40
2017,05,23,08,17,18.40
2017,05,23,08,18,18.50
2017,05,23,08,19,18.50
2017,05,23,08,20,18.60
2017,05,23,08,21,18.70
2017,05,23,08,22,18.70
2017,05,23,08,23,18.80
2017,05,23,08,24,18.80
2017,05,23,08,25,18.90
2017,05,23,08,26,18.90
2017,05,23,08,27,18.90
2017,05,23,08,28,19.00
2017,05,23,08,29,19.00
2017,05,23,08,30,18.90
2017,05,23,08,31,18.80
2017,05,23,08,32,18.70
2017,05,23,08,33,18.40
2017,05,23,08,34,18.20
2017,05,23,08,35,17.90
2017,05,23,08,36,17.60
2017,05,23,08,37,17.30
2017,05,23,08,38,17.10
2017,05,23,08,39,16.90
2017,05,23,08,40,16.80
2017,05,23,08,41,16.70
2017,05,23,08,42,16.70
2017,05,23,08,43,16.70
2017,05,23,08,44,16.70
2017,05,23,08,45,16.70
2017,05,23,08,46,16.70
2017,05,23,08,47,16.70
2017,05,23,08,48,16.80
2017,05,23,08,49,16.80
2017,05,23,08,50,16.80
2017,05,23,08,51,16.90
2017,05,23,08,52,16.90
2017,05,23,08,53,17.00
2017,05,23,08,54,17.00
2017,05,23,08,55,17.20
2017,05,23,08,56,17.30
2017,05,23,08,57,17.40
2017,05,23,08,58,17.50
2017,05,23,08,59,17.70
2017,05,23,09,00,17.80
2017,05,23,09,01,18.00
2017,05,23,09,02,18.10
2017,05,23,09,03,18.20
2017,05,23,09,04,18.30
2017,05,23,09,05,18.40
2017,05,23,09,06,18.50
2017,05,23,09,07,18.50
2017,05,23,09,08,18.60
2017,05,23,09,09,18.80
2017,05,23,09,10,18.80
2017,05,23,09,11,18.90
2017,05,23,09,12,18.90
2017,05,23,09,13,18.90
2017,05,23,09,14,18.80
2017,05,23,09,15,18.80
2017,05,23,09,16,18.80
2017,05,23,09,17,18.80
2017,05,23,09,18,18.80
2017,05,23,09,19,18.80
2017,05,23,09,20,18.80
2017,05,23,09,21,18.80
2017,05,23,09,22,18.80
2017,05,23,09,23,18.70
2017,05,23,09,24,18.60
2017,05,23,09,25,18.40
2017,05,23,09,26,18.30
2017,05,23,09,27,18.20
2017,05,23,09,28,18.10
2017,05,23,09,29,18.00
2017,05,23,09,30,17.90
2017,05,23,09,31,17.90
2017,05,23,09,32,17.80
2017,05,23,09,33,17.80
2017,05,23,09,34,17.80
2017,05,23,09,35,17.70
2017,05,23,09,36,17.70
2017,05,23,09,37,17.70
2017,05,23,09,38,17.70
2017,05,23,09,39,17.70
2017,05,23,09,40,17.70
2017,05,23,09,41,17.80
2017,05,23,09,42,17.80
2017,05,23,09,43,17.80
2017,05,23,09,44,17.80
2017,05,23,09,45,17.80
2017,05,23,09,46,17.70
2017,05,23,09,47,17.70
2017,05,23,09,48,17.60
2017,05,23,09,49,17.50
2017,05,23,09,50,17.40
2017,05,23,09,51,17.40
2017,05,23,09,52,17.40
2017,05,23,09,53,17.40
2017,05,23,09,54,17.50
2017,05,23,09,55,17.50
2017,05,23,09,56,17.60
2017,05,23,09,57,17.60
2017,05,23,09,58,17.70
2017,05,23,09,59,17.80
2017,05,23,10,00,17.90
2017,05,23,10,01,17.90
2017,05,23,10,02,18.00
2017,05,23,10,03,18.00
2017,05,23,10,04,18.10
2017,05,23,10,05,18.20
2017,05,23,10,06,18.20
2017,05,23,10,07,18.20
2017,05,23,10,08,18.30
2017,05,23,10,09,18.30
2017,05,23,10,10,18.30
2017,05,23,10,11,18.40
2017,05,23,10,12,18.50
2017,05,23,10,13,18.60
2017,05,23,10,14,18.70
2017,05,23,10,15,18.70
2017,05,23,10,16,18.70
2017,05,23,10,17,18.80
2017,05,23,10,18,18.80
2017,05,23,10,19,18.90
2017,05,23,10,20,18.90
2017,05,23,10,21,19.00
2017,05,23,10,22,19.10
2017,05,23,10,23,19.10
2017,05,23,10,24,19.20
2017,05,23,10,25,19.20
2017,05,23,10,26,19.20
2017,05,23,10,27,19.20
2017,05,23,10,28,19.20
2017,05,23,10,29,19.20
2017,05,23,10,30,19.20
2017,05,23,10,31,19.10
2017,05,23,10,32,19.00
2017,05,23,10,33,19.00
2017,05,23,10,34,18.90
2017,05,23,10,35,18.90
2017,05,23,10,36,19.00
2017,05,23,10,37,19.10
2017,05,23,10,38,19.20
2017,05,23,10,39,19.30
2017,05,23,10,40,19.30
2017,05,23,10,41,19.40
2017,05,23,10,42,19.50
2017,05,23,10,43,19.60
2017,05,23,10,44,19.60
2017,05,23,10,45,19.70
2017,05,23,10,46,19.70
2017,05,23,10,47,19.80
2017,05,23,10,48,19.80
2017,05,23,10,49,19.80
2017,05,23,10,50,19.80
2017,05,23,10,51,19.80
2017,05,23,10,52,19.90
2017,05,23,10,53,19.90
2017,05,23,10,54,19.90
2017,05,23,10,55,19.80
2017,05,23,10,56,19.90
2017,05,23,10,57,19.90
2017,05,23,10,58,19.90
2017,05,23,10,59,19.90
2017,05,23,11,00,19.90
2017,05,23,11,01,20.00
2017,05,23,11,02,19.90
2017,05,23,11,03,19.70
2017,05,23,11,04,19.60
2017,05,23,11,05,19.60
2017,05,23,11,06,19.60
2017,05,23,11,07,19.60
2017,05,23,11,08,19.60
2017,05,23,11,09,19.60
2017,05,23,11,10,19.50
2017,05,23,11,11,19.50
2017,05,23,11,12,19.40
2017,05,23,11,13,19.40
2017,05,23,11,14,19.30
2017,05,23,11,15,19.30
2017,05,23,11,16,19.40
2017,05,23,11,17,19.40
2017,05,23,11,18,19.50
2017,05,23,11,19,19.60
2017,05,23,11,20,19.60
2017,05,23,11,21,19.50
2017,05,23,11,22,19.40
2017,05,23,11,23,19.40
2017,05,23,11,24,19.40
2017,05,23,11,25,19.40
2017,05,23,11,26,19.40
2017,05,23,11,27,19.50
2017,05,23,11,28,19.50
2017,05,23,11,29,19.40
2017,05,23,11,30,19.40
2017,05,23,11,31,19.30
2017,05,23,11,32,19.20
2017,05,23,11,33,19.20
2017,05,23,11,34,19.20
2017,05,23,11,35,19.20
2017,05,23,11,36,19.10
2017,05,23,11,37,19.10
2017,05,23,11,38,19.00
2017,05,23,11,39,19.10
2017,05,23,11,40,19.20
2017,05,23,11,41,19.30
2017,05,23,11,42,19.40
2017,05,23,11,43,19.50
2017,05,23,11,44,19.50
2017,05,23,11,45,19.50
2017,05,23,11,46,19.60
2017,05,23,11,47,19.60
2017,05,23,11,48,19.70
2017,05,23,11,49,19.70
2017,05,23,11,50,19.70
2017,05,23,11,51,19.70
2017,05,23,11,52,19.70
2017,05,23,11,53,19.70
2017,05,23,11,54,19.70
2017,05,23,11,55,19.80
2017,05,23,11,56,19.80
2017,05,23,11,57,19.80
2017,05,23,11,58,19.80
2017,05,23,11,59,19.70
2017,05,23,12,00,19.70
2017,05,23,12,01,19.80
2017,05,23,12,02,19.80
2017,05,23,12,03,19.80
2017,05,23,12,04,19.80
2017,05,23,12,05,19.70
2017,05,23,12,06,19.70
2017,05,23,12,07,19.60
2017,05,23,12,08,19.50
2017,05,23,12,09,19.50
2017,05,23,12,10,19.60
2017,05,23,12,11,19.60
2017,05,23,12,12,19.70
2017,05,23,12,13,19.80
2017,05,23,12,14,19.80
2017,05,23,12,15,19.80
2017,05,23,12,16,19.80
2017,05,23,12,17,19.80
2017,05,23,12,18,19.80
2017,05,23,12,19,19.80
2017,05,23,12,20,19.90
2017,05,23,12,21,20.00
2017,05,23,12,22,20.10
2017,05,23,12,23,20.20
2017,05,23,12,24,20.20
2017,05,23,12,25,20.20
2017,05,23,12,26,20.10
2017,05,23,12,27,20.00
2017,05,23,12,28,20.00
2017,05,23,12,29,19.90
2017,05,23,12,30,19.90
2017,05,23,12,31,19.90
2017,05,23,12,32,20.00
2017,05,23,12,33,20.00
2017,05,23,12,34,19.90
2017,05,23,12,35,19.80
2017,05,23,12,36,19.60
2017,05,23,12,37,19.50
2017,05,23,12,38,19.50
2017,05,23,12,39,19.50
2017,05,23,12,40,19.50
2017,05,23,12,41,19.50
2017,05,23,12,42,19.50
2017,05,23,12,43,19.50
2017,05,23,12,44,19.60
2017,05,23,12,45,19.70
2017,05,23,12,46,19.80
2017,05,23,12,47,19.80
2017,05,23,12,48,19.80
2017,05,23,12,49,19.90
2017,05,23,12,50,19.90
2017,05,23,12,51,19.90
2017,05,23,12,52,20.00
2017,05,23,12,53,20.00
2017,05,23,12,54,20.00
2017,05,23,12,55,19.90
2017,05,23,12,56,19.80
2017,05,23,12,57,19.80
2017,05,23,12,58,19.80
2017,05,23,12,59,19.80
2017,05,23,13,00,19.80
2017,05,23,13,01,19.90
2017,05,23,13,02,19.90
2017,05,23,13,03,19.90
2017,05,23,13,04,19.90
2017,05,23,13,05,20.00
2017,05,23,13,06,20.10
2017,05,23,13,07,20.20
2017,05,23,13,08,20.40
2017,05,23,13,09,20.50
2017,05,23,13,10,20.60
2017,05,23,13,11,20.70
2017,05,23,13,12,20.90
2017,05,23,13,13,20.90
2017,05,23,13,14,20.90
2017,05,23,13,15,21.00
2017,05,23,13,16,20.90
2017,05,23,13,17,20.90
2017,05,23,13,18,20.90
2017,05,23,13,19,20.90
2017,05,23,13,20,20.90
2017,05,23,13,21,20.90
2017,05,23,13,22,20.90
2017,05,23,13,23,20.90
2017,05,23,13,24,20.80
2017,05,23,13,25,20.80
2017,05,23,13,26,20.80
2017,05,23,13,27,20.80
2017,05,23,13,28,20.80
2017,05,23,13,29,20.80
2017,05,23,13,30,20.70
2017,05,23,13,31,20.60
2017,05,23,13,32,20.50
2017,05,23,13,33,20.40
2017,05,23,13,34,20.40
2017,05,23,13,35,20.50
2017,05,23,13,36,20.50
2017,05,23,13,37,20.40
2017,05,23,13,38,20.40
2017,05,23,13,39,20.30
2017,05,23,13,40,20.20
2017,05,23,13,41,20.20
2017,05,23,13,42,20.10
2017,05,23,13,43,20.10
2017,05,23,13,44,20.20
2017,05,23,13,45,20.20
2017,05,23,13,46,20.20
2017,05,23,13,47,20.20
2017,05,23,13,48,20.10
2017,05,23,13,49,20.10
2017,05,23,13,50,20.00
2017,05,23,13,51,19.90
2017,05,23,13,52,19.90
2017,05,23,13,53,19.90
2017,05,23,13,54,20.00
2017,05,23,13,55,20.10
2017,05,23,13,56,20.10
2017,05,23,13,57,20.20
2017,05,23,13,58,20.20
2017,05,23,13,59,20.20
2017,05,23,14,00,20.20
2017,05,23,14,01,20.00
2017,05,23,14,02,19.90
2017,05,23,14,03,19.80
2017,05,23,14,04,19.70
2017,05,23,14,05,19.70
2017,05,23,14,06,19.70
2017,05,23,14,07,19.70
2017,05,23,14,08,19.70
2017,05,23,14,09,19.70
2017,05,23,14,10,19.70
2017,05,23,14,11,19.80
2017,05,23,14,12,19.80
2017,05,23,14,13,19.80
2017,05,23,14,14,19.80
2017,05,23,14,15,19.80
2017,05,23,14,16,19.90
2017,05,23,14,17,19.90
2017,05,23,14,18,20.00
2017,05,23,14,19,20.00
2017,05,23,14,20,20.00
2017,05,23,14,21,20.10
2017,05,23,14,22,20.20
2017,05,23,14,23,20.20
2017,05,23,14,24,20.30
2017,05,23,14,25,20.30
2017,05,23,14,26,20.30
2017,05,23,14,27,20.30
2017,05,23,14,28,20.20
2017,05,23,14,29,20.20
2017,05,23,14,30,20.20
2017,05,23,14,31,20.20
2017,05,23,14,32,20.10
2017,05,23,14,33,19.90
2017,05,23,14,34,19.80
2017,05,23,14,35,19.80
2017,05,23,14,36,19.70
2017,05,23,14,37,19.60
2017,05,23,14,38,19.50
2017,05,23,14,39,19.50
2017,05,23,14,40,19.50
2017,05,23,14,41,19.60
2017,05,23,14,42,19.60
2017,05,23,14,43,19.70
2017,05,23,14,44,19.70
2017,05,23,14,45,19.80
2017,05,23,14,46,19.90
2017,05,23,14,47,20.00
2017,05,23,14,48,20.10
2017,05,23,14,49,20.10
2017,05,23,14,50,20.20
2017,05,23,14,51,20.20
2017,05,23,14,52,20.10
2017,05,23,14,53,20.00
2017,05,23,14,54,19.90
2017,05,23,14,55,19.80
2017,05,23,14,56,19.80
2017,05,23,14,57,19.70
2017,05,23,14,58,19.70
2017,05,23,14,59,19.70
2017,05,23,15,00,19.60
2017,05,23,15,01,19.60
2017,05,23,15,02,19.40
2017,05,23,15,03,19.30
2017,05,23,15,04,19.30
2017,05,23,15,05,19.20
2017,05,23,15,06,19.20
2017,05,23,15,07,19.20
2017,05,23,15,08,19.30
2017,05,23,15,09,19.40
2017,05,23,15,10,19.40
2017,05,23,15,11,19.40
2017,05,23,15,12,19.40
2017,05,23,15,13,19.40
2017,05,23,15,14,19.40
2017,05,23,15,15,19.40
2017,05,23,15,16,19.30
2017,05,23,15,17,19.20
2017,05,23,15,18,19.10
2017,05,23,15,19,19.10
2017,05,23,15,20,19.10
2017,05,23,15,21,19.00
2017,05,23,15,22,19.00
2017,05,23,15,23,18.90
2017,05,23,15,24,18.90
2017,05,23,15,25,18.80
2017,05,23,15,26,18.80
2017,05,23,15,27,18.80
2017,05,23,15,28,18.90
2017,05,23,15,29,19.00
2017,05,23,15,30,19.00
2017,05,23,15,31,19.00
2017,05,23,15,32,18.80
2017,05,23,15,33,18.80
2017,05,23,15,34,18.70
2017,05,23,15,35,18.70
2017,05,23,15,36,18.80
2017,05,23,15,37,18.90
2017,05,23,15,38,18.90
2017,05,23,15,39,18.90
2017,05,23,15,40,18.70
2017,05,23,15,41,18.60
2017,05,23,15,42,18.60
2017,05,23,15,43,18.70
2017,05,23,15,44,18.70
2017,05,23,15,45,18.70
2017,05,23,15,46,18.80
2017,05,23,15,47,18.90
2017,05,23,15,48,18.90
2017,05,23,15,49,18.90
2017,05,23,15,50,18.70
2017,05,23,15,51,18.50
2017,05,23,15,52,18.40
2017,05,23,15,53,18.30
2017,05,23,15,54,18.20
2017,05,23,15,55,18.20
2017,05,23,15,56,18.30
2017,05,23,15,57,18.30
2017,05,23,15,58,18.20
2017,05,23,15,59,18.20
2017,05,23,16,00,18.20
2017,05,23,16,01,18.20
2017,05,23,16,02,18.30
2017,05,23,16,03,18.20
2017,05,23,16,04,18.20
2017,05,23,16,05,18.10
2017,05,23,16,06,18.10
2017,05,23,16,07,18.10
2017,05,23,16,08,18.00
2017,05,23,16,09,17.90
2017,05,23,16,10,17.80
2017,05,23,16,11,17.70
2017,05,23,16,12,17.60
2017,05,23,16,13,17.60
2017,05,23,16,14,17.70
2017,05,23,16,15,17.70
2017,05,23,16,16,17.70
2017,05,23,16,17,17.60
2017,05,23,16,18,17.60
2017,05,23,16,19,17.70
2017,05,23,16,20,17.60
2017,05,23,16,21,17.60
2017,05,23,16,22,17.60
2017,05,23,16,23,17.60
2017,05,23,16,24,17.50
2017,05,23,16,25,17.50
2017,05,23,16,26,17.30
2017,05,23,16,27,17.20
2017,05,23,16,28,17.10
2017,05,23,16,29,17.00
2017,05,23,16,30,16.90
2017,05,23,16,31,16.90
2017,05,23,16,32,16.90
2017,05,23,16,33,16.90
2017,05,23,16,34,16.80
2017,05,23,16,35,16.80
2017,05,23,16,36,16.80
2017,05,23,16,37,16.70
2017,05,23,16,38,16.70
2017,05,23,16,39,16.60
2017,05,23,16,40,16.60
2017,05,23,16,41,16.50
2017,05,23,16,42,16.40
2017,05,23,16,43,16.40
2017,05,23,16,44,16.40
2017,05,23,16,45,16.40
2017,05,23,16,46,16.40
2017,05,23,16,47,16.40
2017,05,23,16,48,16.40
2017,05,23,16,49,16.30
2017,05,23,16,50,16.30
2017,05,23,16,51,16.20
2017,05,23,16,52,16.10
2017,05,23,16,53,16.10
2017,05,23,16,54,16.00
2017,05,23,16,55,15.80
2017,05,23,16,56,15.70
2017,05,23,16,57,15.50
2017,05,23,16,58,15.40
2017,05,23,16,59,15.30
2017,05,23,17,00,15.30
2017,05,23,17,01,15.40
2017,05,23,17,02,15.40
2017,05,23,17,03,15.40
2017,05,23,17,04,15.30
2017,05,23,17,05,15.30
2017,05,23,17,06,15.30
2017,05,23,17,07,15.20
2017,05,23,17,08,15.10
2017,05,23,17,09,15.10
2017,05,23,17,10,15.20
2017,05,23,17,11,15.20
2017,05,23,17,12,15.20
2017,05,23,17,13,15.20
2017,05,23,17,14,15.20
2017,05,23,17,15,15.20
2017,05,23,17,16,15.20
2017,05,23,17,17,15.20
2017,05,23,17,18,15.00
2017,05,23,17,19,15.00